| time (UTC) | temp F | wind direction | speed MPH | gust MPH | rain 1hr in | rain 24hr in | rain mn in | humidity % | barometer mb |
| 20260510130331 | 64 | 346 | 1.0 | 1.0 | 0.00 | 0.00 | 0.00 | 81 | 1006.0 |
| 20260510125751 | 62 | 356 | 2.0 | 3.0 | 0.00 | 0.00 | 0.00 | 85 | 1006.0 |
| 20260510125144 | 61 | 329 | 0.0 | 1.0 | 0.00 | 0.00 | 0.00 | 88 | 1006.4 |
| 20260510123308 | 59 | 330 | 0.0 | 0.0 | 0.00 | 0.00 | 0.00 | 95 | 1006.0 |
| 20260510122729 | 58 | 271 | 0.0 | 0.0 | 0.00 | 0.00 | 0.00 | 96 | 1006.0 |
| 20260510122133 | 58 | 289 | 0.0 | 0.0 | 0.00 | 0.00 | 0.00 | 98 | 1006.0 |
| 20260510121511 | 57 | 276 | 0.0 | 0.0 | 0.00 | 0.00 | 0.00 | 99 | 1006.0 |
| 20260510120949 | 56 | 264 | 0.0 | 0.0 | 0.00 | 0.00 | 0.00 | 99 | 1006.0 |
| 20260510115743 | 55 | 294 | 0.0 | 0.0 | 0.00 | 0.00 | 0.00 | 99 | 1006.0 |
| 20260510114518 | 54 | 285 | 0.0 | 0.0 | 0.00 | 0.00 | 0.00 | 99 | 1006.0 |
| 20260510113914 | 54 | 279 | 0.0 | 0.0 | 0.00 | 0.00 | 0.00 | 99 | 1005.7 |
| 20260510112710 | 54 | 277 | 0.0 | 0.0 | 0.00 | 0.00 | 0.00 | 99 | 1005.4 |
| 20260510112131 | 53 | 285 | 0.0 | 0.0 | 0.00 | 0.00 | 0.00 | 99 | 1005.4 |
| 20260510111532 | 53 | 302 | 0.0 | 0.0 | 0.00 | 0.00 | 0.00 | 99 | 1005.0 |
| 20260510110933 | 53 | 275 | 0.0 | 0.0 | 0.00 | 0.00 | 0.00 | 99 | 1005.0 |
| 20260510110312 | 53 | 268 | 0.0 | 0.0 | 0.00 | 0.00 | 0.00 | 99 | 1005.0 |
| 20260510105747 | 52 | 276 | 0.0 | 0.0 | 0.00 | 0.00 | 0.00 | 99 | 1005.0 |
| 20260510105143 | 52 | 252 | 0.0 | 0.0 | 0.00 | 0.00 | 0.00 | 99 | 1004.7 |
| 20260510103935 | 52 | 212 | 1.0 | 1.0 | 0.00 | 0.00 | 0.00 | 99 | 1004.4 |
| 20260510103324 | 52 | 285 | 0.0 | 0.0 | 0.00 | 0.00 | 0.00 | 99 | 1004.7 |
| 20260510102717 | 52 | 272 | 0.0 | 0.0 | 0.00 | 0.00 | 0.00 | 99 | 1004.7 |
| 20260510102142 | 52 | 273 | 0.0 | 0.0 | 0.00 | 0.00 | 0.00 | 99 | 1004.7 |
| 20260510101510 | 52 | 308 | 0.0 | 0.0 | 0.00 | 0.00 | 0.00 | 99 | 1004.4 |
| 20260510100351 | 52 | 270 | 0.0 | 0.0 | 0.00 | 0.00 | 0.00 | 99 | 1004.4 |
| 20260510095710 | 52 | 254 | 0.0 | 0.0 | 0.00 | 0.00 | 0.00 | 99 | 1004.7 |
| 20260510095139 | 52 | 268 | 0.0 | 0.0 | 0.00 | 0.00 | 0.00 | 99 | 1004.4 |
| 20260510094539 | 52 | 275 | 0.0 | 0.0 | 0.00 | 0.00 | 0.00 | 98 | 1004.4 |
| 20260510093908 | 52 | 268 | 0.0 | 0.0 | 0.00 | 0.00 | 0.00 | 98 | 1004.4 |
| 20260510093327 | 53 | 268 | 0.0 | 0.0 | 0.00 | 0.00 | 0.00 | 98 | 1004.0 |
| 20260510092725 | 53 | 267 | 0.0 | 0.0 | 0.00 | 0.00 | 0.00 | 98 | 1004.4 |
| 20260510092129 | 53 | 277 | 0.0 | 0.0 | 0.00 | 0.00 | 0.00 | 98 | 1004.0 |
| 20260510091537 | 53 | 309 | 0.0 | 0.0 | 0.00 | 0.00 | 0.00 | 98 | 1004.0 |
| 20260510090909 | 53 | 262 | 0.0 | 0.0 | 0.00 | 0.00 | 0.00 | 98 | 1003.7 |
| 20260510090341 | 53 | 266 | 0.0 | 0.0 | 0.00 | 0.00 | 0.00 | 98 | 1004.0 |
| 20260510085716 | 53 | 270 | 0.0 | 0.0 | 0.00 | 0.00 | 0.00 | 98 | 1003.7 |
| 20260510083948 | 53 | 271 | 0.0 | 0.0 | 0.00 | 0.00 | 0.00 | 97 | 1003.7 |
| 20260510083352 | 53 | 275 | 0.0 | 0.0 | 0.00 | 0.00 | 0.00 | 97 | 1003.7 |
| 20260510082744 | 53 | 212 | 0.0 | 0.0 | 0.00 | 0.00 | 0.00 | 97 | 1003.7 |
| 20260510082119 | 53 | 259 | 0.0 | 0.0 | 0.00 | 0.00 | 0.00 | 97 | 1003.3 |
| 20260510081549 | 54 | 272 | 0.0 | 0.0 | 0.00 | 0.00 | 0.00 | 97 | 1003.3 |
| 20260510080918 | 54 | 295 | 0.0 | 0.0 | 0.00 | 0.00 | 0.00 | 96 | 1003.7 |
| 20260510080327 | 54 | 277 | 0.0 | 0.0 | 0.00 | 0.00 | 0.00 | 96 | 1003.3 |
| 20260510075750 | 54 | 274 | 0.0 | 0.0 | 0.00 | 0.00 | 0.00 | 96 | 1003.3 |
| 20260510074542 | 54 | 283 | 0.0 | 0.0 | 0.00 | 0.00 | 0.00 | 96 | 1003.0 |
| 20260510073942 | 54 | 274 | 0.0 | 0.0 | 0.00 | 0.00 | 0.00 | 96 | 1003.3 |
| 20260510073347 | 55 | 273 | 0.0 | 0.0 | 0.00 | 0.00 | 0.00 | 96 | 1003.0 |
| 20260510072734 | 55 | 277 | 0.0 | 0.0 | 0.00 | 0.00 | 0.00 | 96 | 1003.0 |
| 20260510072126 | 55 | 272 | 0.0 | 0.0 | 0.00 | 0.00 | 0.00 | 96 | 1003.3 |
| 20260510071546 | 55 | 263 | 0.0 | 0.0 | 0.00 | 0.00 | 0.00 | 96 | 1003.3 |
| 20260510070925 | 55 | 268 | 0.0 | 0.0 | 0.00 | 0.00 | 0.00 | 96 | 1003.3 |
| 20260510070312 | 54 | 277 | 1.0 | 1.0 | 0.00 | 0.00 | 0.00 | 96 | 1003.3 |
| 20260510065734 | 55 | 285 | 0.0 | 0.0 | 0.00 | 0.00 | 0.00 | 95 | 1003.3 |
| 20260510065141 | 55 | 283 | 0.0 | 0.0 | 0.00 | 0.00 | 0.00 | 95 | 1003.0 |
| 20260510063923 | 55 | 294 | 0.0 | 0.0 | 0.00 | 0.00 | 0.00 | 95 | 1003.3 |
| 20260510063330 | 56 | 288 | 0.0 | 0.0 | 0.00 | 0.00 | 0.00 | 94 | 1003.0 |
| 20260510062709 | 56 | 280 | 0.0 | 0.0 | 0.00 | 0.00 | 0.00 | 94 | 1003.3 |
| 20260510062146 | 56 | 314 | 0.0 | 0.0 | 0.00 | 0.00 | 0.00 | 94 | 1003.3 |
| 20260510061534 | 56 | 305 | 0.0 | 0.0 | 0.00 | 0.00 | 0.00 | 94 | 1003.3 |
| 20260510060949 | 56 | 275 | 0.0 | 1.0 | 0.00 | 0.00 | 0.00 | 94 | 1003.3 |
| 20260510060341 | 56 | 299 | 0.0 | 0.0 | 0.00 | 0.00 | 0.00 | 94 | 1003.3 |
| 20260510055725 | 56 | 280 | 0.0 | 0.0 | 0.00 | 0.00 | 0.00 | 94 | 1003.3 |
| 20260510055118 | 56 | 302 | 1.0 | 1.0 | 0.00 | 0.00 | 0.00 | 94 | 1003.3 |
| 20260510054538 | 56 | 282 | 0.0 | 1.0 | 0.00 | 0.00 | 0.00 | 93 | 1003.3 |
| 20260510053314 | 57 | 261 | 0.0 | 0.0 | 0.00 | 0.00 | 0.00 | 93 | 1003.3 |
| 20260510052149 | 57 | 252 | 0.0 | 0.0 | 0.00 | 0.00 | 0.00 | 92 | 1003.3 |
| 20260510051548 | 57 | 256 | 0.0 | 0.0 | 0.00 | 0.00 | 0.00 | 92 | 1003.3 |
| 20260510050912 | 57 | 270 | 0.0 | 0.0 | 0.00 | 0.00 | 0.00 | 92 | 1003.3 |
| 20260510050332 | 58 | 269 | 0.0 | 0.0 | 0.00 | 0.00 | 0.00 | 91 | 1003.3 |
| 20260510045721 | 58 | 282 | 0.0 | 0.0 | 0.00 | 0.00 | 0.00 | 91 | 1003.7 |
| 20260510045110 | 58 | 200 | 0.0 | 0.0 | 0.00 | 0.00 | 0.00 | 91 | 1003.3 |
| 20260510043931 | 58 | 258 | 0.0 | 0.0 | 0.00 | 0.00 | 0.00 | 91 | 1003.7 |
| 20260510043338 | 58 | 271 | 0.0 | 0.0 | 0.00 | 0.00 | 0.00 | 91 | 1003.7 |
| 20260510042711 | 58 | 273 | 0.0 | 0.0 | 0.00 | 0.00 | 0.00 | 91 | 1003.7 |
| 20260510042145 | 58 | 241 | 0.0 | 0.0 | 0.00 | 0.00 | 0.00 | 91 | 1003.3 |
| 20260510041533 | 58 | 304 | 0.0 | 0.0 | 0.00 | 0.00 | 0.00 | 91 | 1003.3 |
| 20260510040924 | 58 | 260 | 0.0 | 0.0 | 0.00 | 0.00 | 0.00 | 91 | 1003.3 |
| 20260510040343 | 58 | 274 | 0.0 | 0.0 | 0.00 | 0.00 | 0.00 | 91 | 1003.7 |
| 20260510035747 | 58 | 266 | 0.0 | 0.0 | 0.00 | 0.00 | 0.00 | 91 | 1003.7 |
| 20260510035123 | 58 | 266 | 0.0 | 0.0 | 0.00 | 0.00 | 0.00 | 91 | 1003.7 |
| 20260510034541 | 58 | 220 | 0.0 | 1.0 | 0.00 | 0.00 | 0.00 | 91 | 1003.7 |
| 20260510033909 | 58 | 351 | 1.0 | 1.0 | 0.00 | 0.00 | 0.00 | 91 | 1003.7 |
| 20260510033316 | 58 | 322 | 0.0 | 1.0 | 0.00 | 0.00 | 0.00 | 91 | 1003.7 |
| 20260510032752 | 58 | 282 | 0.0 | 0.0 | 0.00 | 0.00 | 0.00 | 91 | 1003.7 |
| 20260510032147 | 58 | 295 | 0.0 | 0.0 | 0.00 | 0.00 | 0.00 | 91 | 1003.7 |
| 20260510031524 | 58 | 263 | 0.0 | 0.0 | 0.00 | 0.00 | 0.00 | 91 | 1003.3 |
| 20260510030919 | 58 | 278 | 0.0 | 0.0 | 0.00 | 0.00 | 0.00 | 91 | 1003.3 |
| 20260510030328 | 58 | 263 | 0.0 | 0.0 | 0.00 | 0.00 | 0.00 | 90 | 1003.3 |
| 20260510025732 | 58 | 260 | 0.0 | 0.0 | 0.00 | 0.00 | 0.00 | 90 | 1003.3 |
| 20260510025123 | 58 | 262 | 0.0 | 0.0 | 0.00 | 0.00 | 0.00 | 90 | 1003.3 |
| 20260510023940 | 59 | 330 | 0.0 | 0.0 | 0.00 | 0.00 | 0.00 | 90 | 1003.3 |
| 20260510022739 | 59 | 270 | 0.0 | 0.0 | 0.00 | 0.00 | 0.00 | 89 | 1003.0 |
| 20260510021510 | 59 | 271 | 0.0 | 0.0 | 0.00 | 0.00 | 0.00 | 88 | 1002.7 |
| 20260510020952 | 59 | 253 | 0.0 | 0.0 | 0.00 | 0.00 | 0.00 | 88 | 1002.7 |
| 20260510015740 | 60 | 274 | 0.0 | 0.0 | 0.00 | 0.00 | 0.00 | 87 | 1002.7 |
| 20260510015143 | 60 | 280 | 0.0 | 0.0 | 0.00 | 0.00 | 0.00 | 86 | 1002.7 |
| 20260510014511 | 60 | 274 | 0.0 | 0.0 | 0.00 | 0.00 | 0.00 | 86 | 1002.7 |
| 20260510013946 | 60 | 264 | 0.0 | 0.0 | 0.00 | 0.00 | 0.00 | 85 | 1002.3 |
| 20260510012725 | 61 | 293 | 0.0 | 0.0 | 0.00 | 0.00 | 0.00 | 85 | 1002.0 |
| 20260510012131 | 61 | 276 | 0.0 | 0.0 | 0.00 | 0.00 | 0.00 | 84 | 1002.0 |
| 20260510011556 | 61 | 271 | 0.0 | 0.0 | 0.00 | 0.00 | 0.00 | 84 | 1002.0 |
| 20260510010951 | 61 | 269 | 0.0 | 0.0 | 0.00 | 0.00 | 0.00 | 84 | 1001.6 |
| 20260510010348 | 62 | 262 | 0.0 | 0.0 | 0.00 | 0.00 | 0.00 | 83 | 1002.0 |
| 20260510005143 | 62 | 270 | 0.0 | 0.0 | 0.00 | 0.00 | 0.00 | 81 | 1001.6 |
| 20260510004550 | 63 | 275 | 0.0 | 0.0 | 0.00 | 0.00 | 0.00 | 80 | 1001.6 |
| 20260510003308 | 64 | 273 | 0.0 | 0.0 | 0.00 | 0.00 | 0.00 | 79 | 1001.6 |
| 20260510002716 | 65 | 5 | 0.0 | 1.0 | 0.00 | 0.00 | 0.00 | 78 | 1001.6 |
| 20260510001511 | 67 | 276 | 0.0 | 0.0 | 0.00 | 0.00 | 0.00 | 74 | 1001.0 |
| 20260510000943 | 68 | 277 | 0.0 | 0.0 | 0.00 | 0.00 | 0.00 | 71 | 1001.3 |
| 20260510000349 | 69 | 256 | 0.0 | 0.0 | 0.00 | 0.00 | 0.00 | 70 | 1001.0 |
| 20260509235710 | 70 | 286 | 1.0 | 2.0 | 0.00 | 0.00 | 0.00 | 65 | 1001.0 |
| 20260509235126 | 70 | 314 | 2.0 | 2.0 | 0.00 | 0.00 | 0.00 | 64 | 1001.0 |
| 20260509234543 | 71 | 13 | 3.0 | 6.0 | 0.00 | 0.00 | 0.00 | 63 | 1001.0 |
| 20260509233949 | 71 | 340 | 3.0 | 4.0 | 0.00 | 0.00 | 0.00 | 61 | 1001.0 |
| 20260509233339 | 72 | 16 | 1.0 | 1.0 | 0.00 | 0.00 | 0.00 | 61 | 1001.0 |
| 20260509232130 | 72 | 348 | 2.0 | 3.0 | 0.00 | 0.00 | 0.00 | 61 | 1001.0 |
| 20260509231509 | 72 | 297 | 1.0 | 2.0 | 0.00 | 0.00 | 0.00 | 61 | 1001.0 |
| 20260509230951 | 74 | 236 | 1.0 | 2.0 | 0.00 | 0.00 | 0.00 | 58 | 1001.0 |
| 20260509230332 | 74 | 350 | 1.0 | 1.0 | 0.00 | 0.00 | 0.00 | 60 | 1001.0 |
| 20260509225146 | 73 | 329 | 2.0 | 3.0 | 0.00 | 0.00 | 0.00 | 58 | 1001.0 |
| 20260509224535 | 73 | 31 | 5.0 | 6.0 | 0.00 | 0.00 | 0.00 | 57 | 1001.0 |
| 20260509223928 | 73 | 332 | 3.0 | 3.0 | 0.00 | 0.00 | 0.00 | 58 | 1001.0 |
| 20260509223343 | 73 | 305 | 3.0 | 4.0 | 0.00 | 0.00 | 0.00 | 59 | 1001.0 |
| 20260509222130 | 74 | 280 | 3.0 | 4.0 | 0.00 | 0.00 | 0.00 | 58 | 1001.0 |
| 20260509220917 | 75 | 18 | 1.0 | 1.0 | 0.00 | 0.00 | 0.00 | 57 | 1000.6 |
| 20260509220325 | 74 | 335 | 2.0 | 2.0 | 0.00 | 0.00 | 0.00 | 56 | 1001.0 |
| 20260509215723 | 74 | 13 | 3.0 | 3.0 | 0.00 | 0.00 | 0.00 | 55 | 1001.0 |
| 20260509215134 | 74 | 339 | 4.0 | 4.0 | 0.00 | 0.00 | 0.00 | 56 | 1001.0 |
| 20260509214520 | 75 | 286 | 9.0 | 10.0 | 0.00 | 0.00 | 0.00 | 56 | 1001.3 |
| 20260509213334 | 75 | 312 | 3.0 | 4.0 | 0.00 | 0.00 | 0.00 | 56 | 1001.0 |
| 20260509212738 | 74 | 299 | 2.0 | 2.0 | 0.00 | 0.00 | 0.00 | 57 | 1001.0 |
| 20260509212145 | 73 | 26 | 5.0 | 7.0 | 0.00 | 0.00 | 0.00 | 57 | 1001.3 |
| 20260509211542 | 74 | 324 | 4.0 | 4.0 | 0.00 | 0.00 | 0.00 | 57 | 1001.3 |
| 20260509210931 | 71 | 302 | 2.0 | 2.0 | 0.00 | 0.00 | 0.00 | 61 | 1001.0 |
| 20260509210318 | 72 | 9 | 4.0 | 4.0 | 0.00 | 0.00 | 0.00 | 59 | 1001.3 |
| 20260509205747 | 73 | 358 | 3.0 | 4.0 | 0.00 | 0.00 | 0.00 | 58 | 1001.0 |
| 20260509205134 | 73 | 299 | 3.0 | 3.0 | 0.00 | 0.00 | 0.00 | 57 | 1001.0 |
| 20260509204537 | 72 | 296 | 1.0 | 1.0 | 0.00 | 0.00 | 0.00 | 60 | 1001.0 |
| 20260509203950 | 72 | 308 | 4.0 | 6.0 | 0.00 | 0.00 | 0.00 | 59 | 1001.3 |
| 20260509203321 | 71 | 3 | 2.0 | 2.0 | 0.00 | 0.00 | 0.00 | 60 | 1001.3 |
| 20260509202753 | 72 | 320 | 2.0 | 2.0 | 0.00 | 0.00 | 0.00 | 61 | 1001.0 |
| 20260509202126 | 72 | 290 | 6.0 | 8.0 | 0.00 | 0.00 | 0.00 | 57 | 1001.3 |
| 20260509201532 | 72 | 341 | 4.0 | 4.0 | 0.00 | 0.00 | 0.00 | 59 | 1001.3 |
| 20260509200939 | 71 | 302 | 4.0 | 6.0 | 0.00 | 0.00 | 0.00 | 63 | 1001.0 |
| 20260509200309 | 73 | 5 | 4.0 | 4.0 | 0.00 | 0.00 | 0.00 | 60 | 1001.3 |
| 20260509195125 | 72 | 345 | 4.0 | 6.0 | 0.00 | 0.00 | 0.00 | 62 | 1001.3 |
| 20260509193915 | 70 | 301 | 3.0 | 3.0 | 0.00 | 0.00 | 0.00 | 64 | 1001.6 |
| 20260509193337 | 70 | 355 | 2.0 | 2.0 | 0.00 | 0.00 | 0.00 | 66 | 1001.6 |
| 20260509192748 | 71 | 13 | 5.0 | 7.0 | 0.00 | 0.00 | 0.00 | 62 | 1001.6 |
| 20260509191528 | 71 | 351 | 4.0 | 7.0 | 0.00 | 0.00 | 0.00 | 62 | 1001.6 |
| 20260509190313 | 71 | 322 | 4.0 | 4.0 | 0.00 | 0.00 | 0.00 | 64 | 1001.6 |
| 20260509185750 | 71 | 1 | 4.0 | 8.0 | 0.00 | 0.00 | 0.00 | 63 | 1001.6 |
| 20260509185114 | 71 | 348 | 2.0 | 3.0 | 0.00 | 0.00 | 0.00 | 64 | 1001.6 |
| 20260509184531 | 70 | 352 | 1.0 | 2.0 | 0.00 | 0.00 | 0.00 | 66 | 1001.6 |
| 20260509183936 | 70 | 329 | 3.0 | 3.0 | 0.00 | 0.00 | 0.00 | 68 | 1001.6 |
| 20260509183343 | 69 | 19 | 5.0 | 6.0 | 0.00 | 0.00 | 0.00 | 66 | 1001.6 |
| 20260509182727 | 69 | 13 | 4.0 | 6.0 | 0.00 | 0.00 | 0.00 | 68 | 1001.6 |
| 20260509182153 | 68 | 303 | 6.0 | 8.0 | 0.00 | 0.00 | 0.00 | 66 | 1001.6 |
| 20260509181515 | 68 | 26 | 4.0 | 4.0 | 0.00 | 0.00 | 0.00 | 69 | 1001.6 |
| 20260509180942 | 68 | 9 | 4.0 | 4.0 | 0.00 | 0.00 | 0.00 | 67 | 1001.6 |
| 20260509180315 | 68 | 357 | 5.0 | 7.0 | 0.00 | 0.00 | 0.00 | 67 | 1001.6 |
| 20260509175737 | 67 | 319 | 3.0 | 3.0 | 0.00 | 0.00 | 0.00 | 69 | 1001.6 |
| 20260509175152 | 67 | 332 | 4.0 | 6.0 | 0.00 | 0.00 | 0.00 | 68 | 1001.6 |
| 20260509174526 | 67 | 342 | 4.0 | 4.0 | 0.00 | 0.00 | 0.00 | 70 | 1002.0 |
| 20260509173310 | 67 | 352 | 2.0 | 2.0 | 0.00 | 0.00 | 0.00 | 69 | 1002.0 |
| 20260509172726 | 66 | 323 | 3.0 | 3.0 | 0.00 | 0.00 | 0.00 | 71 | 1002.0 |
| 20260509171510 | 64 | 14 | 2.0 | 3.0 | 0.00 | 0.00 | 0.00 | 70 | 1002.0 |
| 20260509170921 | 65 | 325 | 4.0 | 6.0 | 0.00 | 0.00 | 0.00 | 70 | 1002.0 |
| 20260509170323 | 65 | 350 | 4.0 | 7.0 | 0.00 | 0.00 | 0.00 | 69 | 1002.3 |
| 20260509165719 | 64 | 328 | 2.0 | 2.0 | 0.00 | 0.00 | 0.00 | 68 | 1002.3 |
| 20260509165132 | 63 | 321 | 4.0 | 4.0 | 0.00 | 0.00 | 0.00 | 70 | 1002.3 |
| 20260509164539 | 63 | 13 | 2.0 | 3.0 | 0.00 | 0.00 | 0.00 | 71 | 1002.3 |
| 20260509163934 | 63 | 12 | 2.0 | 2.0 | 0.00 | 0.00 | 0.00 | 71 | 1002.7 |
| 20260509162115 | 64 | 344 | 3.0 | 4.0 | 0.00 | 0.00 | 0.00 | 70 | 1002.3 |
| 20260509161540 | 63 | 273 | 2.0 | 2.0 | 0.00 | 0.00 | 0.00 | 72 | 1002.7 |
| 20260509160930 | 63 | 299 | 3.0 | 4.0 | 0.00 | 0.00 | 0.00 | 71 | 1002.7 |
| 20260509160345 | 63 | 330 | 2.0 | 2.0 | 0.00 | 0.00 | 0.00 | 72 | 1002.3 |
| 20260509155716 | 63 | 341 | 1.0 | 2.0 | 0.00 | 0.00 | 0.00 | 71 | 1002.0 |
| 20260509154540 | 63 | 356 | 2.0 | 2.0 | 0.00 | 0.00 | 0.00 | 69 | 1002.0 |
| 20260509153940 | 63 | 307 | 2.0 | 2.0 | 0.00 | 0.00 | 0.00 | 71 | 1002.0 |
| 20260509153324 | 63 | 327 | 2.0 | 3.0 | 0.00 | 0.00 | 0.00 | 72 | 1002.0 |
| 20260509152127 | 62 | 314 | 1.0 | 2.0 | 0.00 | 0.00 | 0.00 | 71 | 1002.0 |
| 20260509150915 | 62 | 318 | 0.0 | 1.0 | 0.00 | 0.00 | 0.00 | 73 | 1002.0 |
| 20260509150315 | 62 | 315 | 1.0 | 1.0 | 0.00 | 0.00 | 0.00 | 74 | 1002.0 |
| 20260509145740 | 61 | 281 | 0.0 | 0.0 | 0.00 | 0.00 | 0.00 | 77 | 1002.0 |
| 20260509145127 | 61 | 264 | 0.0 | 0.0 | 0.00 | 0.00 | 0.00 | 76 | 1002.0 |
| 20260509144508 | 61 | 275 | 0.0 | 0.0 | 0.00 | 0.00 | 0.00 | 79 | 1002.0 |
| 20260509143907 | 60 | 277 | 0.0 | 0.0 | 0.00 | 0.00 | 0.00 | 77 | 1002.0 |
| 20260509142746 | 60 | 270 | 0.0 | 0.0 | 0.00 | 0.00 | 0.00 | 79 | 1002.0 |
| 20260509141517 | 60 | 279 | 0.0 | 0.0 | 0.00 | 0.00 | 0.00 | 82 | 1002.0 |
| 20260509140924 | 60 | 292 | 0.0 | 0.0 | 0.00 | 0.00 | 0.00 | 82 | 1002.3 |
| 20260509140344 | 60 | 280 | 0.0 | 0.0 | 0.00 | 0.00 | 0.00 | 81 | 1002.3 |
| 20260509135710 | 60 | 279 | 0.0 | 0.0 | 0.00 | 0.00 | 0.00 | 81 | 1002.7 |
| 20260509135112 | 60 | 273 | 0.0 | 0.0 | 0.00 | 0.00 | 0.00 | 80 | 1002.7 |
| 20260509134545 | 59 | 287 | 0.0 | 0.0 | 0.00 | 0.00 | 0.00 | 78 | 1002.7 |
| 20260509133914 | 60 | 300 | 1.0 | 1.0 | 0.00 | 0.00 | 0.00 | 79 | 1002.7 |
| 20260509132743 | 60 | 289 | 1.0 | 2.0 | 0.00 | 0.00 | 0.00 | 80 | 1002.0 |
| 20260509132132 | 59 | 273 | 0.0 | 1.0 | 0.00 | 0.00 | 0.00 | 80 | 1001.6 |
| 20260509131511 | 59 | 275 | 0.0 | 1.0 | 0.00 | 0.00 | 0.00 | 81 | 1002.0 |
| 20260509130917 | 58 | 259 | 0.0 | 1.0 | 0.00 | 0.00 | 0.00 | 82 | 1001.6 |